This demonstration page uses our WeatherBlox Daily Observations layout. Learn more.

Left ArrowRight Arrow

53.62937, 11.41316

Hourly Observations for June 5, 2017

Temp ( °F °C ) Dew Point ( °F °C ) Humidity (%) Winds ( mph kmh ) Pressure ( in mb ) Visibility ( mi km ) Precip ( " mm )
6:20 am 06:20 Mostly Sunny 50 10 48 9 94 94 W 5 7 29.97 1015 7 11 N/A
6:50 am 06:50 Mostly Sunny 54 12 50 10 88 88 WSW 6 9 29.97 1015 7 11 N/A
7:20 am 07:20 Mostly Sunny 54 12 50 10 88 88 WSW 7 11 29.97 1015 7 11 N/A
7:50 am 07:50 Mostly Sunny 55 13 52 11 88 88 WSW 6 9 29.97 1015 7 11 N/A
8:20 am 08:20 Mostly Sunny 57 14 50 10 77 77 W 9 15 29.97 1015 7 11 N/A
8:50 am 08:50 Mostly Sunny 59 15 52 11 77 77 W 8 13 29.97 1015 7 11 N/A
9:20 am 09:20 Mostly Sunny 59 15 50 10 72 72 WSW 8 13 29.97 1015 7 11 N/A
9:50 am 09:50 Mostly Sunny 61 16 48 9 63 63 WSW 7 11 29.97 1015 30 48 N/A
10:20 am 10:20 Mostly Sunny 63 17 46 8 56 56 WSW 12 19 29.97 1015 30 48 N/A
10:50 am 10:50 Mostly Sunny 63 17 48 9 59 59 W 8 13 29.97 1015 30 48 N/A
11:20 am 11:20 Mostly Sunny 63 17 46 8 56 56 SW 8 13 29.97 1015 30 48 N/A
11:50 am 11:50 Mostly Sunny 64 18 46 8 52 52 SW 9 15 29.97 1015 30 48 N/A
12:20 pm 12:20 Partly Cloudy 64 18 46 8 52 52 SW 7 11 29.97 1015 30 48 N/A
12:50 pm 12:50 Partly Cloudy 66 19 46 8 49 49 SSW 8 13 29.97 1015 30 48 N/A
1:20 pm 13:20 Mostly Sunny 64 18 46 8 52 52 SW 7 11 29.94 1014 7 11 N/A
1:50 pm 13:50 Mostly Sunny 64 18 48 9 56 56 SW 10 17 29.94 1014 7 11 N/A
2:20 pm 14:20 Mostly Sunny 66 19 46 8 49 49 SSW 9 15 29.94 1014 7 11 N/A
2:50 pm 14:50 Mostly Sunny 66 19 46 8 49 49 SW 10 17 29.94 1014 7 11 N/A
3:20 pm 15:20 Mostly Sunny 66 19 48 9 52 52 SW 10 17 29.91 1013 7 11 N/A
3:50 pm 15:50 Mostly Sunny 66 19 48 9 52 52 SSW 10 17 29.91 1013 7 11 N/A
4:20 pm 16:20 Mostly Sunny 66 19 48 9 52 52 S 9 15 29.91 1013 7 11 N/A
4:50 pm 16:50 Mostly Sunny 68 20 50 10 53 53 SSW 8 13 29.91 1013 7 11 N/A
5:20 pm 17:20 Mostly Sunny 68 20 48 9 49 49 SSW 8 13 29.91 1013 7 11 N/A
5:50 pm 17:50 Mostly Sunny 66 19 48 9 52 52 SSW 9 15 29.88 1012 7 11 N/A
6:20 pm 18:20 Mostly Sunny 68 20 48 9 49 49 SSW 10 17 29.88 1012 7 11 N/A

Powered by AerisWeather